Location: ??
(31.9467°N, 34.8903°E)
Time: 01:10:21
(UTC+00:00)

OAO 2 Rocket - Pass Details

Date: 29 October 2020
Orbit: 676 x 746 km, 35.0° (Epoch: 25 November)

Event Time Altitude Azimuth Distance (km) Brightness Sun altitude
Rises 15:20:03 0° 266° (W) 3,076 8.9 -6.4°
Reaches altitude 10° 15:22:30 10° 270° (W) 2,147 7.5 -6.9°
Maximum altitude 15:27:30 66° 352° (N) 748 3.5 -7.9°
Enters shadow 15:32:12 11° 74° (ENE) 2,037 5.0 -8.9°
